Regional Weather Roundup
Issued by NWS

Home | Current Version | Previous Version | Graphics & Text | Print | Product List | Glossary On
Versions: 1 2 3 4 5 6 7 8 9 10 11 12 13 14 15 16 17 18 19 20 21 22 23 24 25 26 27 28 29 30 31 32 33 34 35 36 37 38 39 40 41 42 43 44 45 46 47 48 49 50
000
ASUS43 KLMK 182210
RWRKY
KENTUCKY REGIONAL WEATHER ROUNDUP
NATIONAL WEATHER SERVICE LOUISVILLE KY
600 PM EDT SAT APR 18 2015

NOTE "FAIR" INDICATES FEW OR NO CLOUDS BELOW 12,000 FEET
WITH NO SIGNIFICANT WEATHER AND/OR OBSTRUCTIONS TO VISIBILITY.

KYZ001>023-026-027-061>063-070>075-182300-
WESTERN AND SOUTH CENTRAL KENTUCKY

CITY           SKY/WX    TMP DP  RH WIND       PRES   REMARKS
PADUCAH        CLOUDY    78  58  49 CALM      29.86F
HENDERSON      PTSUNNY   75  55  50 NE7       29.88F
OWENSBORO      CLOUDY    81  54  39 E12       29.89F
HOPKINSVILLE   PTSUNNY   77  58  52 E9        29.87F
BOWLING GREEN  PTSUNNY   78  57  48 E7        29.89F
GLASGOW        PTSUNNY   79  54  42 NE6       29.90F
$$

KYZ024-025-028>034-038-045-046-053-182300-
NORTH CENTRAL KENTUCKY

CITY           SKY/WX    TMP DP  RH WIND       PRES   REMARKS
LOUISVILLE/SDF PTSUNNY   81  45  28 E14       29.93F
LOUISVILLE/LOU MOSUNNY   79  44  28 NE5       29.93F
FORT KNOX      PTSUNNY   78  49  35 NE13      29.90F
$$

KYZ035>037-039>044-047>052-055>060-089>105-182300-
NORTHEAST KENTUCKY

CITY           SKY/WX    TMP DP  RH WIND       PRES   REMARKS
LEXINGTON      MOSUNNY   76  51  41 NE9       29.96F
COVINGTON      PTSUNNY   77  46  33 E14       29.97F
FRANKFORT      MOSUNNY   76  47  35 E8        29.94F
$$

KYZ054-064>069-076>088-106>120-182300-
SOUTHEAST KENTUCKY

CITY           SKY/WX    TMP DP  RH WIND       PRES   REMARKS
JACKSON        MOSUNNY   80  50  34 CALM      29.94S
LONDON         CLOUDY    80  46  30 CALM      29.93S
SOMERSET       MOSUNNY   79  50  36 NE5       29.93F
MIDDLESBORO    CLOUDY    80  53  38 CALM      29.93S
MONTICELLO     MOCLDY    80  55  42 NE10      29.94F
$$




USA.gov is the U.S. government's official web portal to all federal, state and local government web resources and services.